TimeEDT,TemperatureF,Dew PointF,Humidity,Sea Level PressureIn,VisibilityMPH,Wind Direction,Wind SpeedMPH,Gust SpeedMPH,PrecipitationIn,Events,Conditions,WindDirDegrees,DateUTC
12:15 AM,77.0,69.8,78,30.08,10.0,ENE,4.6,-,N/A,,Clear,70,2013-10-03 04:15:00
12:35 AM,77.0,71.6,83,30.09,10.0,East,4.6,-,N/A,,Clear,80,2013-10-03 04:35:00
12:55 AM,77.0,71.6,83,30.09,10.0,East,4.6,-,N/A,,Clear,90,2013-10-03 04:55:00
1:15 AM,77.0,71.6,83,30.08,10.0,East,3.5,-,N/A,,Clear,90,2013-10-03 05:15:00
1:35 AM,75.2,71.6,89,30.08,10.0,East,4.6,-,N/A,,Clear,90,2013-10-03 05:35:00
1:55 AM,75.2,73.4,94,30.07,10.0,East,3.5,-,N/A,,Clear,90,2013-10-03 05:55:00
2:15 AM,75.2,73.4,94,30.07,10.0,East,3.5,-,N/A,,Clear,80,2013-10-03 06:15:00
2:35 AM,75.2,75.2,100,30.06,10.0,ENE,3.5,-,N/A,,Clear,70,2013-10-03 06:35:00
2:55 AM,75.2,-9999,N/A,30.05,10.0,ENE,4.6,-,N/A,,Clear,70,2013-10-03 06:55:00
3:15 AM,75.2,-9999,N/A,30.05,10.0,ENE,4.6,-,N/A,,Clear,70,2013-10-03 07:15:00
3:35 AM,75.2,-9999,N/A,30.04,10.0,ENE,3.5,-,N/A,,Clear,70,2013-10-03 07:35:00
3:55 AM,75.2,-9999,N/A,30.04,10.0,ENE,3.5,-,N/A,,Clear,60,2013-10-03 07:55:00
4:15 AM,75.2,-9999,N/A,30.03,10.0,NE,3.5,-,N/A,,Clear,40,2013-10-03 08:15:00
4:35 AM,73.4,-9999,N/A,30.02,10.0,ENE,3.5,-,N/A,,Clear,60,2013-10-03 08:35:00
4:55 AM,73.4,-9999,N/A,30.01,10.0,ENE,6.9,-,N/A,,Clear,60,2013-10-03 08:55:00
5:15 AM,73.4,-9999,N/A,30.01,10.0,NE,4.6,-,N/A,,Clear,50,2013-10-03 09:15:00
5:35 AM,73.4,-9999,N/A,30.02,10.0,NE,4.6,-,N/A,,Clear,40,2013-10-03 09:35:00
5:55 AM,73.4,-9999,N/A,30.02,10.0,NE,3.5,-,N/A,,Clear,50,2013-10-03 09:55:00
6:15 AM,73.4,-9999,N/A,30.02,10.0,ENE,3.5,-,N/A,,Clear,60,2013-10-03 10:15:00
6:35 AM,71.6,-9999,N/A,30.03,10.0,Calm,Calm,-,N/A,,Clear,0,2013-10-03 10:35:00
6:55 AM,71.6,-9999,N/A,30.04,10.0,Calm,Calm,-,N/A,,Clear,0,2013-10-03 10:55:00
7:15 AM,71.6,-9999,N/A,30.04,10.0,NNE,3.5,-,N/A,,Clear,30,2013-10-03 11:15:00
7:35 AM,71.6,-9999,N/A,30.05,10.0,NNE,3.5,-,N/A,,Clear,30,2013-10-03 11:35:00
7:55 AM,73.4,-9999,N/A,30.06,10.0,NE,3.5,-,N/A,,Clear,40,2013-10-03 11:55:00
8:15 AM,73.4,-9999,N/A,30.06,10.0,Calm,Calm,-,N/A,,Clear,0,2013-10-03 12:15:00
8:35 AM,75.2,-9999,N/A,30.07,10.0,ENE,4.6,-,N/A,,Clear,60,2013-10-03 12:35:00
8:55 AM,77.0,68.0,74,30.07,10.0,ENE,5.8,-,N/A,,Clear,70,2013-10-03 12:55:00
9:15 AM,78.8,68.0,69,30.08,10.0,ENE,6.9,-,N/A,,Clear,70,2013-10-03 13:15:00
9:35 AM,80.6,68.0,65,30.09,10.0,East,6.9,-,N/A,,Clear,80,2013-10-03 13:35:00
9:55 AM,82.4,68.0,62,30.10,10.0,East,6.9,-,N/A,,Clear,90,2013-10-03 13:55:00
10:15 AM,82.4,68.0,62,30.11,10.0,SE,9.2,-,N/A,,Clear,140,2013-10-03 14:15:00
10:35 AM,82.4,68.0,62,30.11,10.0,SE,9.2,-,N/A,,Scattered Clouds,140,2013-10-03 14:35:00
10:55 AM,84.2,68.0,58,30.11,10.0,SE,6.9,-,N/A,,Scattered Clouds,140,2013-10-03 14:55:00
11:15 AM,86.0,68.0,55,30.11,10.0,East,6.9,-,N/A,,Scattered Clouds,80,2013-10-03 15:15:00
11:35 AM,86.0,68.0,55,30.11,10.0,East,9.2,-,N/A,,Scattered Clouds,100,2013-10-03 15:35:00
11:55 AM,86.0,66.2,51,30.10,10.0,East,5.8,-,N/A,,Clear,90,2013-10-03 15:55:00
12:15 PM,86.0,66.2,51,30.10,10.0,East,5.8,-,N/A,,Scattered Clouds,80,2013-10-03 16:15:00
12:35 PM,87.8,66.2,49,30.09,10.0,ESE,8.1,-,N/A,,Scattered Clouds,120,2013-10-03 16:35:00
12:55 PM,87.8,64.4,46,30.08,10.0,East,5.8,-,N/A,,Clear,80,2013-10-03 16:55:00
1:15 PM,87.8,62.6,43,30.08,10.0,ESE,8.1,-,N/A,,Clear,110,2013-10-03 17:15:00
1:35 PM,87.8,64.4,46,30.07,10.0,SE,3.5,-,N/A,,Scattered Clouds,130,2013-10-03 17:35:00
1:55 PM,89.6,62.6,40,30.07,10.0,East,5.8,-,N/A,,Scattered Clouds,100,2013-10-03 17:55:00
2:15 PM,89.6,60.8,38,30.06,10.0,South,4.6,-,N/A,,Scattered Clouds,170,2013-10-03 18:15:00
2:35 PM,89.6,60.8,38,30.05,10.0,ESE,9.2,-,N/A,,Clear,110,2013-10-03 18:35:00
2:55 PM,89.6,59.0,36,30.04,10.0,East,5.8,-,N/A,,Clear,80,2013-10-03 18:55:00
3:15 PM,89.6,60.8,38,30.04,10.0,ENE,8.1,-,N/A,,Clear,70,2013-10-03 19:15:00
3:35 PM,89.6,59.0,36,30.03,10.0,ESE,4.6,-,N/A,,Clear,120,2013-10-03 19:35:00
3:55 PM,91.4,57.2,31,30.03,10.0,ENE,8.1,-,N/A,,Clear,70,2013-10-03 19:55:00
4:15 PM,91.4,57.2,31,30.02,10.0,ESE,4.6,-,N/A,,Clear,110,2013-10-03 20:15:00
4:35 PM,89.6,57.2,33,30.02,10.0,ESE,4.6,-,N/A,,Clear,110,2013-10-03 20:35:00
4:55 PM,89.6,55.4,31,30.02,10.0,East,5.8,-,N/A,,Clear,100,2013-10-03 20:55:00
5:15 PM,89.6,57.2,33,30.02,10.0,East,4.6,-,N/A,,Clear,100,2013-10-03 21:15:00
5:35 PM,89.6,59.0,36,30.02,10.0,Calm,Calm,-,N/A,,Clear,0,2013-10-03 21:35:00
5:55 PM,87.8,57.2,35,30.03,10.0,Calm,Calm,-,N/A,,Clear,0,2013-10-03 21:55:00
6:15 PM,87.8,60.8,40,30.03,10.0,ESE,3.5,-,N/A,,Clear,110,2013-10-03 22:15:00
6:35 PM,86.0,62.6,45,30.03,10.0,Calm,Calm,-,N/A,,Clear,0,2013-10-03 22:35:00
6:55 PM,84.2,64.4,51,30.03,10.0,Calm,Calm,-,N/A,,Clear,0,2013-10-03 22:55:00
7:15 PM,82.4,68.0,62,30.03,10.0,Calm,Calm,-,N/A,,Clear,0,2013-10-03 23:15:00
7:35 PM,80.6,68.0,65,30.04,10.0,Calm,Calm,-,N/A,,Scattered Clouds,0,2013-10-03 23:35:00
7:55 PM,80.6,68.0,65,30.04,10.0,Calm,Calm,-,N/A,,Clear,0,2013-10-03 23:55:00
8:15 PM,78.8,68.0,69,30.04,10.0,Calm,Calm,-,N/A,,Clear,0,2013-10-04 00:15:00
8:35 PM,78.8,69.8,74,30.04,10.0,Calm,Calm,-,N/A,,Clear,0,2013-10-04 00:35:00
8:55 PM,78.8,68.0,69,30.05,10.0,Calm,Calm,-,N/A,,Clear,0,2013-10-04 00:55:00
9:15 PM,80.6,68.0,65,30.06,10.0,East,4.6,-,N/A,,Clear,90,2013-10-04 01:15:00
9:35 PM,80.6,68.0,65,30.07,10.0,ESE,6.9,-,N/A,,Scattered Clouds,120,2013-10-04 01:35:00
9:55 PM,80.6,68.0,65,30.07,10.0,ESE,5.8,-,N/A,,Scattered Clouds,110,2013-10-04 01:55:00
10:15 PM,80.6,69.8,70,30.08,10.0,ESE,6.9,-,N/A,,Clear,110,2013-10-04 02:15:00
10:35 PM,80.6,69.8,70,30.08,10.0,East,6.9,-,N/A,,Clear,100,2013-10-04 02:35:00
10:55 PM,80.6,69.8,70,30.08,10.0,East,6.9,-,N/A,,Clear,100,2013-10-04 02:55:00
11:15 PM,78.8,69.8,74,30.09,10.0,East,4.6,-,N/A,,Clear,100,2013-10-04 03:15:00
11:35 PM,78.8,69.8,74,30.09,10.0,ESE,5.8,-,N/A,,Clear,110,2013-10-04 03:35:00